Marietta, GA

3:48 PM EST on December 12, 2017 (GMT -0500)
Dobbins Air Force Base

Weather History for KMGE - September, 2013

Change the Weather History Date:

Monday, September 23, 2013

  Actual Average Record
Temperature  
Mean Temperature 69 °F -  
Max Temperature 80 °F 76 °F 90 °F (2010)
Min Temperature 59 °F 59 °F 48 °F (1999)
Cooling Degree Days 4    
Growing Degree Days 19 (Base 50)    
Moisture  
Dew Point 60 °F    
Average Humidity 74    
Maximum Humidity 98    
Minimum Humidity 51    
Precipitation  
Precipitation 0.00 in - - ()
Sea Level Pressure  
Sea Level Pressure 29.97 in    
Wind  
Wind Speed 4 mph (East)    
Max Wind Speed 12 mph    
Max Gust Speed -    
Visibility 10 miles    
Events      
Averages and records for this station are not official NWS values.
T = Trace of Precipitation, MM = Missing Value Source: NWS Daily Summary

Daily Weather History Graph

Daily Weather History Graph

Search for Another Location

Airport or City:

Trip Planner

Search our weather history database for the weather conditions in past years. The results will help you decide how hot, cold, wet, or windy it might be!

Date:

Astronomy

Sep. 23, 2013 Rise Set
Actual Time 7:27 AM EDT 7:33 PM EDT
Civil Twilight 7:02 AM EDT 7:57 PM EDT
Nautical Twilight 6:33 AM EDT 8:27 PM EDT
Astronomical Twilight 6:03 AM EDT 8:56 PM EDT
Moon 10:17 PM EDT (9/23) 11:32 AM EDT (9/23)
Length of Visible Light 12h 55m
Length of Day
12h 06m
Waning Gibbous, 81% of the Moon is Illuminated
Sep 23
Waning Gibbous
Sep 26
Last Quarter
Oct 4
New
Oct 11
First Quarter
Oct 18
Full

Hourly Weather History & Observations

Time (EDT) Temp. Dew Point Humidity Pressure Visibility Wind Dir Wind Speed Gust Speed Precip Events Conditions
12:58 AM 61.2 °F 58.5 °F 91% 29.89 in 10.0 mi Calm Calm - N/A   Partly Cloudy
1:58 AM 59.4 °F 57.9 °F 95% 29.91 in 10.0 mi South 3.5 mph - N/A   Partly Cloudy
2:58 AM 60.3 °F 58.8 °F 95% 29.90 in 10.0 mi Calm Calm - N/A   Clear
3:58 AM 59.4 °F 58.5 °F 97% 29.90 in 10.0 mi Calm Calm - N/A   Scattered Clouds
4:58 AM 59.0 °F 58.3 °F 97% 29.91 in 10.0 mi NNE 1.2 mph - N/A   Scattered Clouds
5:58 AM 59.2 °F 58.6 °F 98% 29.92 in 10.0 mi NNE 2.3 mph - N/A   Mostly Cloudy
6:58 AM 59.5 °F 58.6 °F 97% 29.96 in 10.0 mi Variable 2.3 mph - N/A   Scattered Clouds
7:58 AM 60.3 °F 59.2 °F 96% 29.99 in 10.0 mi ENE 2.3 mph - N/A   Scattered Clouds
8:58 AM 64.4 °F 60.8 °F 88% 30.00 in 10.0 mi East 4.6 mph - N/A   Scattered Clouds
9:58 AM 68.7 °F 60.8 °F 76% 30.01 in 10.0 mi East 6.9 mph - N/A   Partly Cloudy
10:58 AM 72.3 °F 61.3 °F 68% 30.00 in 10.0 mi East 9.2 mph - N/A   Partly Cloudy
11:58 AM 75.4 °F 61.3 °F 62% 30.01 in 10.0 mi East 10.4 mph - N/A   Scattered Clouds
12:58 PM 77.4 °F 59.5 °F 54% 30.00 in 10.0 mi ESE 11.5 mph - N/A   Scattered Clouds
1:58 PM 77.7 °F 59.9 °F 54% 29.99 in 10.0 mi SE 11.5 mph - N/A   Scattered Clouds
2:58 PM 78.1 °F 59.2 °F 52% 29.97 in 10.0 mi East 11.5 mph - N/A   Scattered Clouds
3:58 PM 77.7 °F 59.4 °F 53% 29.96 in 10.0 mi East 8.1 mph - N/A   Mostly Cloudy
4:58 PM 79.3 °F 59.5 °F 51% 29.96 in 10.0 mi East 8.1 mph - N/A   Scattered Clouds
5:58 PM 78.3 °F 59.0 °F 51% 29.96 in 10.0 mi Variable 4.6 mph - N/A   Scattered Clouds
6:58 PM 75.7 °F 60.1 °F 58% 29.98 in 10.0 mi Variable 3.5 mph - N/A   Mostly Cloudy
7:58 PM 73.0 °F 60.4 °F 65% 29.98 in 10.0 mi East 4.6 mph - N/A   Mostly Cloudy
8:58 PM 70.7 °F 60.3 °F 69% 29.99 in 10.0 mi ENE 2.3 mph - N/A   Partly Cloudy
9:58 PM 70.3 °F 61.0 °F 72% 30.00 in 10.0 mi East 5.8 mph - N/A   Mostly Cloudy
10:58 PM 70.0 °F 59.9 °F 70% 30.01 in 10.0 mi East 9.2 mph - N/A   Overcast
11:58 PM 69.6 °F 59.7 °F 71% 30.02 in 10.0 mi East 11.5 mph - N/A   Overcast